Tracking 21076 objects as of 7-Aug-2020
HD Live streaming from Space Station
objects crossing your sky now

FREGAT DEB

Track FREGAT DEB now!
10-day predictions


NORAD ID: 45647
Int'l Code: 2011-037AP
Perigee: 570.7 km
Apogee: 3,470.7 km
Inclination: 51.5 °
Period: 127.5 minutes
Semi major axis: 8391 km
RCS: Unknown
Launch date: July 18, 2011
Source: Commonwealth of Independent States (former USSR) (CIS)
Launch site: TYURATAM MISSILE AND SPACE COMPLEX (TTMTR)

Note: This is SATELLITE DEBRIS
aabbcc
Your satellite tracking list
Your tracking list is empty




NASA's NSSDC Master Catalog

Two Line Element Set (TLE):
1 45647U 11037AP  20220.17227083  .00005711  00000-0  38069-2 0  9996
2 45647  51.5329 223.1684 1727916 172.3966 190.7124 11.29343224  7907
Source of the keplerian elements: AFSPC